Regional Weather Roundup
Issued by NWS

Home | Current Version | Previous Version | Graphics & Text | Print | Product List | Glossary Off
Versions: 1 2 3 4 5 6 7 8 9 10 11 12 13 14 15 16 17 18 19 20 21 22 23 24 25 26 27 28 29 30 31 32 33 34 35 36 37 38 39 40 41 42 43 44 45 46 47 48 49 50

000
ASUS43 KMKX 241900
RWRWI

WISCONSIN REGIONAL WEATHER ROUNDUP
NATIONAL WEATHER SERVICE MILWAUKEE/SULLIVAN WI
200 PM CDT SUN JUL 24 2016

NOTE: "FAIR" INDICATES FEW OR NO CLOUDS BELOW 12,000 FEET WITH NO
SIGNIFICANT WEATHER AND/OR OBSTRUCTIONS TO VISIBILITY.

WIZ001-002-006>008-014>016-023>028-242000-
NORTHWEST WISCONSIN

CITY           SKY/WX    TMP DP  RH WIND       PRES   REMARKS
SUPERIOR ARPT  MOSUNNY   81  64  54 W14G21    29.81R HX  83
ASHLAND        PTSUNNY   81  64  56 W12       29.80R HX  82
HAYWARD        MOSUNNY   81  63  54 W8G17     29.84S HX  82
SIREN          MOSUNNY   79  61  53 NW15      29.87S HX  80
CUMBERLAND     SUNNY     77  59  53 W16G24    29.87R
RICE LAKE      SUNNY     80  65  59 W14G20    29.87S HX  82
CHETEK         MOSUNNY   82  65  56 W12G18    29.85F HX  84
LADYSMITH      MOSUNNY   82  65  56 W10G16    29.86F HX  84
EAU CLAIRE     NOT AVBL
MENOMONIE      SUNNY     85  63  46 W13       29.86S HX  86
NEW RICHMOND   SUNNY     82  62  50 W16       29.87F HX  82
OSCEOLA        SUNNY     80  63  55 NW14      29.90F HX  82
$$

WIZ003>005-009-010-017-018-242000-
NORTH CENTRAL WISCONSIN

CITY           SKY/WX    TMP DP  RH WIND       PRES   REMARKS
MANITOWISH WTR MOSUNNY   79  66  63 W12       29.82S HX  81
ARBOR VITAE    MOSUNNY   81  69  66 W10       29.84R HX  84
WOODRUFF       MOSUNNY   81  69  66 W10       29.84R HX  84
RHINELANDER    MOSUNNY   82  68  62 W10G20    29.84S HX  85
EAGLE RIVER    PTSUNNY   78  67  68 W12       29.83S HX  80
LAND O LAKES   PTSUNNY   81  66  61 W8G16     29.83S HX  83
PHILLIPS       MOSUNNY   79  64  60 NW8G17    29.84S HX  81
TOMAHAWK       MOSUNNY   80  69  67 W8        29.84S HX  83
MEDFORD        PTSUNNY   81  69  66 W14G21    29.86S HX  84
MERRILL        MOSUNNY   81  74  79 W8        29.84S HX  85
$$

WIZ029-030-035-036-043>047-242000-
CENTRAL WISCONSIN

CITY           SKY/WX    TMP DP  RH WIND       PRES   REMARKS
WAUSAU         MOSUNNY   82  72  71 NW5       29.82S HX  87
MOSINEE        PTSUNNY   81  73  78 W10       29.86R HX  85
MARSHFIELD     PTSUNNY   85  70  60 NW12      29.85S HX  89
STEVENS POINT  MOSUNNY   79  73  80 W12       29.84S HX  83
WAUPACA        PTSUNNY   87  78  75 SW13G18   29.81S HX 100
WAUTOMA        PTSUNNY   86  78  77 W12       29.82S HX  98
WISC RAPIDS    PTSUNNY   86  71  60 NW12      29.85S HX  91
CAMP DOUGLAS   MOSUNNY   86  76  71 W13G21    29.84R HX  95
$$

WIZ011>013-019>022-031-037>040-048>050-242000-
NORTHEAST WISCONSIN

CITY           SKY/WX    TMP DP  RH WIND       PRES   REMARKS
ANTIGO         CLOUDY    74  73  98 W8        29.85R FOG
SHAWANO        CLOUDY    81  75  83 SW3       29.80S HX  87
OCONTO         CLOUDY    79  79 100 SW7       29.78F HX  84
STURGEON BAY   CLOUDY    76  73  91 S14       29.80F
GREEN BAY      CLOUDY    80  78  94 S6        29.79F HX  88
MANITOWOC      NOT AVBL
APPLETON       CLOUDY    81  79  94 SW7       29.80F HX  89
CLINTONVILLE   CLOUDY    79  75  89 SW10G16   29.81S HX  82
OSHKOSH        PTSUNNY   86  78  77 SW9       29.80F HX  98
$$

WIZ032>034-041-042-053>061-242000-
SOUTHWEST WISCONSIN

CITY           SKY/WX    TMP DP  RH WIND       PRES   REMARKS
LA CROSSE      SUNNY     88  65  46 NW13      29.84F HX  90
SPARTA         MOSUNNY   86  71  59 NW14      29.86R HX  91
VIROQUA        PTSUNNY   84  72  67 NW13      29.89R HX  90
BOSCOBEL       PTSUNNY   90  78  68 W12G21    29.85S HX 104
PRAIRIE DU CHI MOSUNNY   88  73  61 W9        29.85S HX  95
PLATTEVILLE    CLOUDY    83  81  93 NW9       29.88R HX  96
$$

WIZ056-057-062-063-064-067-068-242000-
SOUTH CENTRAL WISCONSIN

CITY           SKY/WX    TMP DP  RH WIND       PRES   REMARKS
REEDSBURG      CLOUDY    84  78  83 W9        29.84S HX  95
BARABOO/DELLS  CLOUDY    83  76  79 W9        29.85S HX  92
LONE ROCK      CLOUDY    85  78  80 W9        29.85S HX  96
MINERAL POINT  CLOUDY    82  79  89 W8        29.89R HX  93
MADISON        PTSUNNY   88  78  72 W6        29.83S HX 101
MIDDLETON      PTSUNNY   91  78  66 SW12      29.84F HX 106
WATERTOWN      PTSUNNY   88  80  75 SW12      29.83F HX 104
MONROE         PTSUNNY   90  77  66 SW15      29.86S HX 102
JANESVILLE     PTSUNNY   91  77  62 SW14      29.84F HX 105
$$

WIZ051-052-058>065-066-070>072-242000-
SOUTHEAST WISCONSIN

CITY           SKY/WX    TMP DP  RH WIND       PRES   REMARKS
MILWAUKEE      PTSUNNY   91  78  65 SW20      29.82F HX 106
WAUKESHA       PTSUNNY   88  75  66 SW12      29.85F HX  97
MILWAUKEE/TIMM PTSUNNY   90  73  58 SW12G20   29.83F HX  98
RACINE         CLOUDY    88  75  65 SE9       29.85F HX  97
BURLINGTON     PTSUNNY   90  84  82 S9        29.84F HX 115
KENOSHA        CLOUDY    93  78  61 SW16G22   29.84F HX 108
FOND DU LAC    MOSUNNY   87  78  74 SW12      29.81F HX 100
SHEBOYGAN      PTSUNNY   78  73  84 S9        29.82F HX  81
WEST BEND      PTSUNNY   88  77  70 SW12G17   29.83F HX 100
JUNEAU         PTSUNNY   85  78  79 SW12      29.85S HX  97
$$

LSZ147-162-242000-
LAKE SUPERIOR

STATION/POSITION TIME  TEMP    WIND        PRES    WAVE
                       AIR SEA DIR/SP/G            HT/PER
                 (UTC) (F)     (DEG/KT/KT) (MB)    (FT/S)
W MID LAKE BUOY  1750   62 58  220/ 10/ 10 1006.7R   1/ 3
DEVILS ISLAND    1800   70     240/ 21/ 24 1007.6R
PORT WING        1800   77     250/ 11/ 19   N/A
SAXON HARBOR     1800   77     290/  5/  8 1008.1R
$$

LMZ867-665-643>646-242000-
LAKE MICHIGAN

STATION/POSITION TIME  TEMP    WIND        PRES    WAVE
                       AIR SEA DIR/SP/G            HT/PER
                 (UTC) (F)     (DEG/KT/KT) (MB)    (FT/S)
CHAMBERS ISLAND  1800   76     190/  4/ 10 1008.8S
S GREEN BAY BUOY 1800   76 75  210/ 12/ 14   N/A
N MID LAKE BUOY  1750   70 68  210/ 19/ 23 1008.4R   4/ 5
NORTHPORT PIER   1800   72     160/  5/ 10 1009.1S
KEWAUNEE LAKESHO 1800   68     190/ 17/ 20 1009.7R
SHEBOYGAN LAKESH 1800   67     180/ 14/ 14 1010.6F
PORT WASHINGTON  1800   69     190/  5/  9 1011.2F
MILWAUKEE LAKESH 1810   64     140/ 15/ 17   N/A
S MID LAKE BUOY  1750   74 72  150/ 19/ 23 1010.8F   3/ 5
KENOSHA   LAKESH 1800          170/ 14/ 16 1010.5F
$$

TC  - TEMPERATURE IN CELSIUS
VSB - VISIBILITY IN STATUTE MILES
WCI - WIND CHILL INDEX
HX  - HEAT INDEX




USA.gov is the U.S. government's official web portal to all federal, state and local government web resources and services.